Location: ??????
(41.3794°N, 22.5014°E)
Time: 22:28:51
(UTC+00:00)

CORIOLIS - Pass Details

Date: 30 November 2020
Orbit: 818 x 839 km, 98.7° (Epoch: 19 January)

Event Time Altitude Azimuth Distance (km) Brightness Sun altitude
Rises 16:00:57 0° 164° (SSE) 3,357 7.4 -11.0°
Reaches altitude 10° 16:03:17 10° 164° (SSE) 2,431 6.6 -11.4°
Maximum altitude 16:08:41 89° 81° (E) 841 4.2 -12.4°
Drops below altitude 10° 16:14:10 10° 347° (NNW) 2,459 6.6 -13.4°
Sets 16:16:32 0° 347° (NNW) 3,400 7.3 -13.8°
